Location: Newark
(50.1751°N, 5.6239°W)
Time: 11:56:05
(UTC+00:00)

Nauka - Visible Passes

Search period start: 18 September 2021 00:00
Search period end: 28 September 2021 00:00
Orbit: 419 x 423 km, 51.6° (Epoch: 17 September)

Date Brightness Start Highest point End Pass type
(mag) Time Alt. Az. Time Alt. Az. Time Alt. Az.
18 Sep ? 20:26:36 10° SW 20:29:30 53° SSW 20:29:30 53° SSW visible
19 Sep ? 19:39:53 10° SW 19:43:06 42° SSE 19:44:44 24° E visible
19 Sep ? 21:16:29 10° W 21:17:44 21° W 21:17:44 21° W visible
20 Sep ? 18:53:18 10° SSW 18:56:18 30° SSE 18:59:19 10° E visible
20 Sep ? 20:29:34 10° WSW 20:32:50 82° WNW 20:32:50 82° WNW visible
21 Sep ? 19:42:40 10° WSW 19:46:03 79° SSE 19:47:51 25° ENE visible
21 Sep ? 21:19:37 10° W 21:20:50 20° WNW 21:20:50 20° WNW visible
22 Sep ? 18:55:50 10° WSW 18:59:10 60° SSE 19:02:31 10° ENE visible
22 Sep ? 20:32:41 10° W 20:35:46 63° NW 20:35:46 63° NW visible
23 Sep ? 19:45:43 10° W 19:49:05 72° N 19:50:39 29° ENE visible
23 Sep ? 21:22:43 10° WNW 21:23:38 17° WNW 21:23:38 17° WNW visible
24 Sep ? 18:58:46 10° WSW 19:02:09 83° NNW 19:05:29 10° ENE visible
24 Sep ? 20:35:46 10° WNW 20:38:29 51° NW 20:38:29 51° NW visible
25 Sep ? 19:48:49 10° W 19:52:11 66° N 19:53:18 38° ENE visible
25 Sep ? 21:25:44 10° WNW 21:26:17 14° WNW 21:26:17 14° WNW visible
26 Sep ? 19:01:51 10° W 19:05:13 66° N 19:08:06 13° E visible
26 Sep ? 20:38:48 10° WNW 20:41:06 40° WNW 20:41:06 40° WNW visible
27 Sep ? 19:51:51 10° WNW 19:55:15 79° NNE 19:55:54 54° E visible
27 Sep ? 21:28:50 10° W 21:28:54 10° W 21:28:54 10° W visible
